Weather History for Miami, FL

Change the Weather History Date:

Sunday, December 1, 2013

  Actual Average Record
Temperature  
Mean Temperature 72 °F 73 °F  
Max Temperature 80 °F 80 °F 87 °F (1902)
Min Temperature 64 °F 66 °F 43 °F (1945)
Degree Days  
Heating Degree Days 0 0  
Month to date heating degree days 0 0  
Since 1 July heating degree days 2 3  
Cooling Degree Days 7 8  
Month to date cooling degree days 7 8  
Year to date cooling degree days 4548 4380  
Growing Degree Days 22 (Base 50)    
Moisture  
Dew Point 65 °F    
Average Humidity 82    
Maximum Humidity 97    
Minimum Humidity 67    
Precipitation  
Precipitation 0.21 in 0.08 in 1.65 in (1918)
Month to date precipitation 0.21 0.08  
Year to date precipitation 65.96 59.94  
Snow  
Snow 0.00 in - - ()
Month to date snowfall 0.0  
Since 1 July snowfall 0.0  
Snow Depth 0.00 in    
Sea Level Pressure  
Sea Level Pressure 30.04 in    
Wind  
Wind Speed 4 mph (North)    
Max Wind Speed 12 mph    
Max Gust Speed 23 mph    
Visibility 10 miles    
Events Rain    
T = Trace of Precipitation, MM = Missing Value Source: NWS Daily Summary

Daily Weather History Graph

Daily Weather History Graph

Search for Another Location

Airport:

Trip Planner

Search our weather history database for the weather conditions in past years. The results will help you decide how hot, cold, wet, or windy it might be!

Date:

Astronomy

Dec. 01, 2013 Rise Set
Actual Time 6:51 AM EST 5:29 PM EST
Civil Twilight 6:26 AM EST 5:54 PM EST
Nautical Twilight 5:57 AM EST 6:23 PM EST
Astronomical Twilight 5:29 AM EST 6:50 PM EST
Moon 5:14 AM EST (12/1) 4:32 PM EST (12/1)
Length of Visible Light 11h 28m
Length of Day
10h 38m
Waning Crescent, 2% of the Moon is Illuminated
Dec 1
Waning Crescent
Dec 2
New
Dec 9
First Quarter
Dec 17
Full
Dec 25
Last Quarter

Hourly Weather History & Observations

Time (EST) Temp. Dew Point Humidity Pressure Visibility Wind Dir Wind Speed Gust Speed Precip Events Conditions
12:53 AM 68.0 °F 62.1 °F 81% 30.10 in 10.0 mi NNW 3.5 mph - N/A   Partly Cloudy
1:53 AM 66.9 °F 62.1 °F 84% 30.09 in 10.0 mi NNW 3.5 mph - N/A   Partly Cloudy
2:53 AM 66.0 °F 61.0 °F 84% 30.06 in 10.0 mi Calm Calm - N/A   Partly Cloudy
3:53 AM 64.9 °F 61.0 °F 87% 30.05 in 10.0 mi NNW 4.6 mph - N/A   Partly Cloudy
4:53 AM 64.9 °F 61.0 °F 87% 30.06 in 10.0 mi NNW 5.8 mph - N/A   Partly Cloudy
5:53 AM 64.0 °F 61.0 °F 90% 30.06 in 10.0 mi NNW 4.6 mph - N/A   Partly Cloudy
6:53 AM 64.0 °F 61.0 °F 90% 30.08 in 10.0 mi North 4.6 mph - N/A   Partly Cloudy
7:53 AM 66.9 °F 63.0 °F 87% 30.09 in 10.0 mi NNW 3.5 mph - N/A   Partly Cloudy
8:53 AM 72.0 °F 64.9 °F 78% 30.11 in 10.0 mi Calm Calm - N/A   Partly Cloudy
9:53 AM 73.9 °F 66.0 °F 76% 30.11 in 10.0 mi NNW 4.6 mph - N/A   Partly Cloudy
10:53 AM 77.0 °F 68.0 °F 74% 30.10 in 10.0 mi Variable 6.9 mph - N/A   Mostly Cloudy
11:53 AM 79.0 °F 66.9 °F 66% 30.08 in 10.0 mi NE 8.1 mph - N/A   Mostly Cloudy
12:53 PM 78.1 °F 66.0 °F 66% 30.04 in 10.0 mi Variable 5.8 mph - 0.00 in   Mostly Cloudy
1:53 PM 77.0 °F 66.0 °F 69% 30.02 in 10.0 mi North 4.6 mph - N/A   Mostly Cloudy
2:53 PM 75.9 °F 66.0 °F 71% 30.00 in 10.0 mi North 5.8 mph - N/A   Mostly Cloudy
3:53 PM 75.0 °F 66.9 °F 76% 29.99 in 10.0 mi ENE 6.9 mph - N/A   Overcast
4:53 PM 73.9 °F 66.0 °F 76% 30.00 in 10.0 mi NNE 4.6 mph - N/A   Overcast
5:53 PM 72.0 °F 66.9 °F 84% 30.00 in 10.0 mi Variable 3.5 mph - 0.07 in Rain Light Rain
6:53 PM 72.0 °F 68.0 °F 87% 30.01 in 5.0 mi Variable 4.6 mph - 0.14 in Rain Rain
7:51 PM 71.6 °F 68.0 °F 88% 30.01 in 10.0 mi Variable 5.8 mph - 0.00 in   Overcast
7:53 PM 71.1 °F 68.0 °F 90% 30.01 in 10.0 mi Variable 5.8 mph - 0.00 in   Overcast
8:33 PM 69.8 °F 68.0 °F 94% 30.01 in 10.0 mi Variable 3.5 mph - N/A   Overcast
8:51 PM 69.8 °F 68.0 °F 94% 30.01 in 10.0 mi Variable 3.5 mph - N/A   Overcast
8:53 PM 70.0 °F 68.0 °F 93% 30.01 in 10.0 mi NNE 4.6 mph - N/A   Overcast
9:53 PM 69.1 °F 66.9 °F 93% 30.00 in 10.0 mi NNE 3.5 mph - N/A   Overcast
10:38 PM 69.8 °F 66.2 °F 88% 29.99 in 10.0 mi Calm Calm - N/A   Overcast
10:53 PM 69.1 °F 66.9 °F 93% 29.99 in 10.0 mi Calm Calm - N/A   Overcast
11:53 PM 69.1 °F 66.0 °F 90% 29.97 in 10.0 mi NW 3.5 mph - N/A   Overcast